This demonstration page uses our WeatherBlox Daily Observations layout. Learn more.

Left ArrowRight Arrow

Hourly Observations for July 25, 2021

Temp ( °F °C ) Dew Point ( °F °C ) Humidity (%) Winds ( mph kmh ) Pressure ( in mb ) Visibility ( mi km ) Precip ( " mm )
12:53 am 00:53 Hazy 59 15 35 1.7 41 41 Calm 29.94 1014 6 10 0.00 0.00
1:53 am 01:53 Clear 60 15.6 37 2.8 42 42 VRB 3 6 29.93 1013 7 11 0.00 0.00
2:53 am 02:53 Clear 56 13.3 35 1.7 46 46 NNW 3 6 29.93 1013 7 11 0.00 0.00
3:53 am 03:53 Clear 51 10.6 34 1.1 52 52 SSW 9 15 29.94 1014 7 11 0.00 0.00
4:53 am 04:53 Clear 49 9.4 33 0.6 55 55 SW 7 11 29.94 1014 7 11 0.00 0.00
5:53 am 05:53 Hazy 48 8.9 33 0.6 56 56 WSW 6 9 29.94 1014 6 10 0.00 0.00
6:53 am 06:53 Hazy 53 11.7 34 1.1 48 48 W 3 6 29.93 1014 6 10 0.00 0.00
7:53 am 07:53 Hazy 60 15.6 35 1.7 39 39 WNW 5 7 29.94 1014 5 8 0.00 0.00
8:53 am 08:53 Hazy 66 18.9 36 2.2 33 33 SW 3 6 29.95 1014 5 8 0.00 0.00
9:53 am 09:53 Hazy 74 23.3 35 1.7 24 24 SW 5 7 29.95 1014 6 10 0.00 0.00
10:53 am 10:53 Sunny 81 27.2 35 1.7 19 19 SW 8 13 29.92 1013 7 11 0.00 0.00
11:53 am 11:53 Sunny 87 30.6 35 1.7 16 16 WSW 8 13 29.90 1013 8 13 0.00 0.00
12:53 pm 12:53 Sunny 91 32.8 34 1.1 13 13 VRB 5 7 29.89 1012 8 13 0.00 0.00
1:53 pm 13:53 Sunny 93 33.9 32 0 11 11 undefined N/A 29.86 1011 8 13 0.00 0.00
2:53 pm 14:53 Sunny 96 35.6 34 1.1 11 11 NNW 12 19 29.85 1011 8 13 0.00 0.00
3:53 pm 15:53 Sunny 96 35.6 34 1.1 11 11 VRB 6 9 29.84 1010 7 11 0.00 0.00
4:53 pm 16:53 Sunny 96 35.6 33 0.6 11 11 WNW 9 15 29.83 1010 7 11 0.00 0.00
5:53 pm 17:53 Hazy 94 34.4 38 3.3 14 14 NW 16 26 29.83 1010 5 8 0.00 0.00
6:53 pm 18:53 Hazy 92 33.3 36 2.2 14 14 NNW 15 24 29.82 1010 5 8 0.00 0.00
7:53 pm 19:53 Hazy 88 31.1 36 2.2 16 16 N 9 15 29.83 1010 5 8 0.00 0.00
8:53 pm 20:53 Hazy 83 28.3 37 2.8 19 19 ENE 6 9 29.83 1010 6 10 0.00 0.00
9:53 pm 21:53 Clear 71 21.7 41 5 34 34 ESE 6 9 29.85 1011 7 11 0.00 0.00
10:53 pm 22:53 Clear 67 19.4 39 3.9 36 36 ESE 6 9 29.85 1011 7 11 0.00 0.00
11:53 pm 23:53 Clear 66 18.9 37 2.8 34 34 Calm 29.84 1010 7 11 0.00 0.00

Powered by AerisWeather